Location: Palomar Mountain Lodge
(33.3110°N, 116.8495°W)
Time: 14:59:35
(UTC-07:00)

Daily predictions for brighter satellites

Satellite Brightness Start Highest point End
(mag) Time Altitude Azimuth Time Altitude Azimuth Time Altitude Azimuth
Delta 2 Rocket 4.3 19:39:39 10° W 19:45:23 70° N 19:50:39 10° E
Cosmos 1536 2.8 19:42:20 10° S 19:46:18 84° E 19:50:19 10° N
Cosmos 1544 Rocket 3.9 19:43:10 10° SSE 19:47:18 44° E 19:51:28 10° NNE
Cosmos 1346 Rocket 4.2 19:44:45 10° NNE 19:47:41 20° ENE 19:50:38 10° SE
EP 1 4.4 19:49:31 10° SSW 19:52:02 45° ESE 19:54:26 10° NE
FENGYUN 3A 4.1 19:49:39 10° SE 19:54:37 40° ENE 19:59:34 10° N
Cosmos 2208 Rocket 4.1 19:50:38 10° S 19:55:45 55° ESE 20:00:58 10° NNE
Cosmos 2227 Rocket 3.4 19:51:17 10° N 19:55:50 24° ENE 20:00:11 11° ESE
NOSS 7 (D) 4.3 19:56:33 10° SSW 20:00:14 75° ESE 20:03:34 10° NE
CZ-3C R/B 4.1 18:12:07 10° WSW 20:00:44 55° SSW 20:09:52 12° ESE
Meteor 1-5 Rocket 4.1 19:55:56 10° S 20:01:07 60° E 20:06:25 10° NNE
Spot 2 Rocket 3.9 20:00:36 10° S 20:05:39 67° WSW 20:10:44 10° NNW
NOSS 3-4 (A) 4.2 20:02:23 10° NNW 20:09:11 47° NE 20:15:30 13° SE
NOSS 3-4 (C) 4.2 20:02:30 10° NNW 20:09:18 47° NE 20:15:35 14° SE
Cosmos 2297 Rocket 3.5 20:07:01 10° N 20:11:29 23° ENE 20:14:38 15° ESE
Cosmos 1570 Rocket 4.0 20:07:30 10° SSW 20:12:48 89° ESE 20:18:06 10° NNE
CZ-4B DEB 2.8 20:11:49 10° S 20:15:04 87° WSW 20:18:21 10° NNW
Meteor 2-16 Rocket 4.4 20:14:22 10° S 20:20:27 89° E 20:26:33 10° N
Cosmos 1821 Rocket 4.2 20:14:50 10° SSW 20:20:55 72° W 20:27:00 10° N
OAO 2 Rocket 3.3 20:18:21 10° WSW 20:23:22 84° SSE 20:27:30 16° ENE
Cosmos 1605 Rocket 4.0 20:17:33 10° S 20:23:50 66° E 20:30:05 10° NNE
Cosmos 1975 3.1 20:27:19 10° SSE 20:31:15 48° E 20:35:12 10° NNE
Iridium 4 Rocket 3.8 20:29:46 10° NNE 20:34:28 39° E 20:36:38 25° SE
Okean 2 3.6 20:31:16 10° NNW 20:35:25 70° W 20:39:31 10° S
ATLAS 3B CENTAUR R/B 2.2 20:34:57 10° SW 20:35:33 13° SSW 20:35:33 13° SSW
DELTA 2 R/B (1) 4.3 20:31:59 10° WNW 20:37:19 45° N 20:41:10 18° ENE
H-2A R/B 3.6 20:43:39 18° ENE 20:43:39 18° ENE 20:46:05 10° NNE
Lacrosse 5 rocket 2.5 20:41:48 10° N 20:44:45 22° NE 20:45:08 22° NE
Cosmos 1697 Rocket 2.8 20:40:35 10° S 20:45:58 48° ESE 20:51:23 10° NNE
H-2A R/B 3.4 20:43:31 10° S 20:47:16 55° W 20:51:07 10° NNW
ALOS 3.1 20:42:53 10° S 20:47:24 51° W 20:51:58 10° NNW
ERS-1 Rocket 3.2 20:47:45 32° SE 20:49:42 50° ENE 20:54:33 10° N
Cosmos 1455 Rocket 4.4 20:47:11 10° SSW 20:51:13 40° W 20:55:19 10° N
Cosmos 1626 Rocket 3.5 20:46:54 10° N 20:51:16 63° E 20:52:46 38° SSE
deb Chang Zheng 4 4.2 20:52:03 10° NNE 20:55:42 38° E 20:55:42 38° E
Cosmos 1461 2.6 20:53:11 10° NNW 20:57:11 70° ENE 20:57:43 60° ESE
Cosmos 2123 Rocket 4.3 20:51:15 10° NNW 20:57:22 68° W 21:03:28 10° S
Chunghua 1 4.5 20:54:04 10° WSW 20:57:56 89° S 20:58:34 61° E
Cosmos 1898 Rocket 4.1 20:53:58 10° N 20:58:50 36° ENE 20:59:26 35° E
Cosmos 1602 Rocket 3.4 20:55:16 10° N 20:59:43 81° E 21:01:15 41° SSE
Meteor 1-12 Rocket 4.5 20:54:08 10° SSW 20:59:48 72° W 21:05:36 10° N
Cosmos 1939 Rocket 3.0 21:03:34 55° E 21:03:38 55° ENE 21:07:42 10° N
Cosmos 1980 Rocket 2.5 21:08:26 44° E 21:08:26 44° E 21:13:28 10° NE
Cosmos 1459 Rocket 3.9 21:05:51 33° SSE 21:08:24 58° E 21:14:20 10° NNE
Milstar 3 Cent rocket 4.2 20:46:07 10° W 21:08:41 72° S 21:14:46 33° ESE
Nimbus 7 Rocket 4.4 21:03:02 10° NNE 21:08:59 58° ESE 21:11:53 30° SSE
Cosmos 468 Rocket 3.8 21:08:41 10° SSW 21:13:48 90° ESE 21:18:56 10° NNE
Hubble Space Telescope 2.5 21:11:00 10° WSW 21:13:46 22° SSW 21:13:46 22° SSW
USA 186 4.2 21:13:12 13° SW 21:14:54 19° W 21:17:11 10° NW
Lacrosse 5 3.3 21:14:19 10° NNW 21:18:20 23° NE 21:18:37 23° NE
SPOT 5 3.4 21:20:37 45° ENE 21:20:37 45° ENE 21:24:56 10° N
Tiangong 1 3.8 21:18:43 10° NNW 21:20:21 14° N 21:20:21 14° N
OTV 4 2.6 21:18:16 10° WNW 21:19:48 27° WNW 21:19:48 27° WNW
Cosmos 1814 Rocket 3.9 21:17:06 12° SSW 21:22:03 89° ESE 21:27:24 10° NNE
Cosmos 220 Rocket 3.9 21:19:15 10° NNW 21:23:17 77° WNW 21:23:17 77° WNW
Delta 2 Rocket 3.8 21:22:54 10° WNW 21:28:22 71° SSW 21:28:23 71° SSW
Cosmos 1500 4.2 21:28:22 41° W 21:28:45 43° W 21:32:21 10° N
MetOp-B 4.5 21:30:43 49° NE 21:30:43 49° NE 21:35:21 10° N
Cosmos 1802 Rocket 3.9 21:32:30 48° S 21:34:28 83° E 21:40:55 10° N
RESURS DK-1 4.1 21:32:13 10° N 21:34:13 24° NNE 21:34:13 24° NNE
Cosmos 2227 Rocket 3.3 21:34:45 10° NW 21:39:57 38° WSW 21:42:04 28° SSW
Cosmos 2298 Rocket 4.3 21:44:18 10° NNW 21:49:30 64° W 21:49:30 64° W
Cosmos 2016 Rocket 3.8 21:52:14 79° SW 21:52:36 84° W 21:58:47 10° N
Envisat 3.8 21:54:39 44° WSW 21:55:00 45° W 21:59:51 10° NNW
Cosmos 2297 Rocket 3.1 21:50:22 10° NW 21:55:37 40° WSW 21:56:28 38° SW
H-2A R/B 4.1 22:00:30 17° NNE 22:00:30 17° NNE 22:01:54 10° NNE
Terra 4.3 22:02:30 12° NNE 22:02:30 12° NNE 22:03:02 10° NNE
Cosmos 1937 Rocket 4.2 21:59:58 10° NNW 22:04:03 53° NW 22:04:03 53° NW
ASTEX 1 4.3 22:01:47 10° N 22:05:29 45° NNW 22:05:29 45° NNW
Cosmos 2098 Rocket 4.1 22:07:38 85° NW 22:07:38 85° NW 22:13:50 10° N
H-2A R/B 4.4 22:20:48 19° WNW 22:20:48 19° WNW 22:22:30 10° NW
SL-16 R/B 4.5 22:39:10 16° NNE 22:39:10 16° NNE 22:40:11 10° NNE
Cosmos 1980 Rocket 4.3 22:50:00 17° W 22:52:17 22° WNW 22:56:37 10° N
Lacrosse 5 4.4 22:56:38 10° NW 22:57:49 17° NW 22:57:49 17° NW
USA 215 4.4 23:19:35 37° NW 23:19:35 37° NW 23:23:15 10° NW
